Weather History for Taunton, MA

Change the Weather History Date:

Monday, April 7, 2014

  Actual Average Record
Temperature  
Mean Temperature 46 °F -  
Max Temperature 62 °F 53 °F 77 °F (1991)
Min Temperature 30 °F 32 °F 14 °F (1982)
Degree Days  
Heating Degree Days 20    
Moisture  
Dew Point 31 °F    
Average Humidity 65    
Maximum Humidity 90    
Minimum Humidity 20    
Precipitation  
Precipitation 0.05 in - - ()
Sea Level Pressure  
Sea Level Pressure 30.14 in    
Wind  
Wind Speed 3 mph (SE)    
Max Wind Speed 14 mph    
Max Gust Speed 22 mph    
Visibility 8 miles    
Events Rain    
Averages and records for this station are not official NWS values.
T = Trace of Precipitation, MM = Missing Value Source: NWS Daily Summary

Daily Weather History Graph

Daily Weather History Graph

Search for Another Location

Airport:

Trip Planner

Search our weather history database for the weather conditions in past years. The results will help you decide how hot, cold, wet, or windy it might be!

Date:

Astronomy

Apr. 07, 2014 Rise Set
Actual Time 6:16 AM EDT 7:16 PM EDT
Civil Twilight 5:48 AM EDT 7:44 PM EDT
Nautical Twilight 5:14 AM EDT 8:18 PM EDT
Astronomical Twilight 4:39 AM EDT 8:54 PM EDT
Moon 12:07 PM EDT (4/7) 1:53 AM EDT (4/7)
Length of Visible Light 13h 56m
Length of Day
12h 59m
First Quarter, 53% of the Moon is Illuminated
Apr 7
First Quarter
Apr 15
Full
Apr 22
Last Quarter
Apr 29
New
May 6
First Quarter

Hourly Weather History & Observations

Time (EDT) Temp. Dew Point Humidity Pressure Visibility Wind Dir Wind Speed Gust Speed Precip Events Conditions
12:52 AM 33.1 °F 30.0 °F 89% 30.19 in 10.0 mi Calm Calm - N/A   Clear
1:52 AM 34.0 °F 30.0 °F 85% 30.18 in 10.0 mi Calm Calm - N/A   Clear
2:52 AM 33.1 °F 30.0 °F 89% 30.19 in 10.0 mi Calm Calm - N/A   Clear
3:52 AM 33.1 °F 30.0 °F 89% 30.19 in 10.0 mi Calm Calm - N/A   Clear
4:52 AM 33.1 °F 30.0 °F 89% 30.19 in 9.0 mi Calm Calm - N/A   Clear
5:52 AM 30.9 °F 28.0 °F 89% 30.20 in 10.0 mi Calm Calm - N/A   Clear
6:29 AM 30.9 °F 28.0 °F 89% 30.22 in 1.0 mi Calm Calm - N/A   Clear
6:36 AM 30.9 °F 28.0 °F 89% 30.22 in 0.8 mi Calm Calm - N/A   Clear
6:39 AM 30.9 °F 28.0 °F 89% 30.22 in 1.5 mi Calm Calm - N/A   Clear
6:42 AM 30.9 °F 28.0 °F 89% 30.22 in 5.0 mi Calm Calm - N/A   Clear
6:52 AM 32.0 °F 28.9 °F 88% 30.22 in 8.0 mi Calm Calm - N/A   Clear
7:52 AM 39.9 °F 34.0 °F 79% 30.22 in 10.0 mi Calm Calm - N/A   Clear
8:52 AM 52.0 °F 34.0 °F 50% 30.23 in 10.0 mi Calm Calm - N/A   Clear
9:52 AM 59.0 °F 25.0 °F 27% 30.23 in 10.0 mi SE 6.9 mph - N/A   Clear
10:52 AM 61.0 °F 23.0 °F 23% 30.22 in 10.0 mi SE 11.5 mph 16.1 mph N/A   Clear
11:52 AM 61.0 °F 21.9 °F 22% 30.22 in 10.0 mi South 12.7 mph 18.4 mph N/A   Clear
12:52 PM 60.1 °F 25.0 °F 26% 30.22 in 10.0 mi SSW 9.2 mph - N/A   Clear
1:52 PM 57.0 °F 26.1 °F 30% 30.20 in 10.0 mi South 8.1 mph - N/A   Clear
2:52 PM 55.9 °F 17.1 °F 22% 30.16 in 10.0 mi SSE 11.5 mph 19.6 mph N/A   Clear
3:52 PM 55.0 °F 14.0 °F 20% 30.14 in 10.0 mi SSE 13.8 mph 21.9 mph N/A   Clear
4:52 PM 52.0 °F 28.9 °F 41% 30.13 in 10.0 mi SSE 8.1 mph - N/A   Scattered Clouds
5:52 PM 50.0 °F 35.1 °F 57% 30.09 in 10.0 mi SSE 6.9 mph - N/A   Mostly Cloudy
6:52 PM 50.0 °F 33.1 °F 52% 30.10 in 10.0 mi East 4.6 mph - N/A   Overcast
7:52 PM 50.0 °F 25.0 °F 38% 30.07 in 10.0 mi East 5.8 mph - N/A   Overcast
8:52 PM 48.9 °F 30.0 °F 48% 30.04 in 10.0 mi ESE 9.2 mph - N/A   Overcast
9:52 PM 48.0 °F 39.9 °F 74% 30.00 in 10.0 mi ESE 5.8 mph - 0.00 in Rain Light Rain
10:50 PM 48.2 °F 44.6 °F 87% 29.95 in 4.0 mi ESE 12.7 mph - 0.02 in Rain Light Rain
10:52 PM 48.9 °F 45.0 °F 86% 29.95 in 5.0 mi ESE 12.7 mph - 0.03 in Rain Light Rain
11:01 PM 48.9 °F 45.0 °F 86% 29.95 in 6.0 mi SE 12.7 mph - 0.00 in Rain Light Rain
11:08 PM 48.9 °F 46.0 °F 90% 29.94 in 8.0 mi SE 11.5 mph - 0.00 in Rain Light Rain
11:52 PM 50.0 °F 46.0 °F 86% 29.91 in 3.0 mi SE 9.2 mph - 0.02 in Rain Light Rain